| time (UTC) | temp C | wind direction | speed KPH | gust KPH | rain 1hr cm | rain 24hr cm | rain mn cm | humidity % | barometer mb |
| 20260509213034 | 21 | 68 | 4.8 | 22.5 | 0.00 | 0.46 | 0.46 | 57 | 1011.7 |
| 20260509212531 | 21 | 281 | 11.3 | 22.5 | 0.00 | 0.46 | 0.46 | 57 | 1011.6 |
| 20260509212028 | 21 | 89 | 6.4 | 14.5 | 0.00 | 0.46 | 0.46 | 59 | 1011.6 |
| 20260509211524 | 20 | 88 | 11.3 | 19.3 | 0.00 | 0.46 | 0.46 | 59 | 1011.7 |
| 20260509211021 | 20 | 243 | 9.7 | 19.3 | 0.00 | 0.46 | 0.46 | 60 | 1011.7 |
| 20260509210518 | 21 | 288 | 14.5 | 19.3 | 0.00 | 0.46 | 0.46 | 58 | 1011.6 |
| 20260509210014 | 21 | 219 | 16.1 | 19.3 | 0.00 | 0.46 | 0.46 | 58 | 1012.0 |
| 20260509205508 | 21 | 167 | 17.7 | 22.5 | 0.00 | 0.46 | 0.46 | 57 | 1012.1 |
| 20260509205004 | 21 | 195 | 0.0 | 19.3 | 0.00 | 0.46 | 0.46 | 60 | 1011.9 |
| 20260509204500 | 20 | 168 | 6.4 | 19.3 | 0.00 | 0.46 | 0.46 | 61 | 1012.1 |
| 20260509203957 | 20 | 81 | 12.9 | 19.3 | 0.00 | 0.46 | 0.46 | 64 | 1012.0 |
| 20260509203453 | 20 | 251 | 12.9 | 19.3 | 0.00 | 0.46 | 0.46 | 63 | 1012.2 |
| 20260509202951 | 20 | 270 | 11.3 | 14.5 | 0.00 | 0.46 | 0.46 | 65 | 1012.1 |
| 20260509202446 | 20 | 187 | 4.8 | 11.3 | 0.00 | 0.46 | 0.46 | 65 | 1012.1 |
| 20260509201942 | 19 | 192 | 9.7 | 14.5 | 0.00 | 0.46 | 0.46 | 64 | 1012.2 |
| 20260509201437 | 18 | 226 | 8.0 | 19.3 | 0.00 | 0.46 | 0.46 | 67 | 1012.3 |
| 20260509200934 | 19 | 185 | 4.8 | 25.7 | 0.00 | 0.46 | 0.46 | 66 | 1012.3 |
| 20260509200434 | 19 | 194 | 14.5 | 19.3 | 0.00 | 0.46 | 0.46 | 65 | 1012.4 |
| 20260509195931 | 19 | 138 | 11.3 | 22.5 | 0.00 | 0.46 | 0.46 | 67 | 1012.4 |
| 20260509195427 | 19 | 162 | 4.8 | 11.3 | 0.00 | 0.46 | 0.46 | 66 | 1012.4 |
| 20260509194926 | 20 | 255 | 11.3 | 29.0 | 0.00 | 0.46 | 0.46 | 65 | 1012.5 |
| 20260509194422 | 20 | 162 | 6.4 | 22.5 | 0.00 | 0.46 | 0.46 | 64 | 1012.6 |
| 20260509193920 | 19 | 175 | 4.8 | 14.5 | 0.00 | 0.46 | 0.46 | 67 | 1012.6 |
| 20260509193419 | 18 | 131 | 12.9 | 22.5 | 0.00 | 0.46 | 0.46 | 67 | 1012.7 |
| 20260509192915 | 18 | 184 | 11.3 | 14.5 | 0.00 | 0.46 | 0.46 | 69 | 1012.7 |
| 20260509192411 | 18 | 173 | 4.8 | 11.3 | 0.00 | 0.46 | 0.46 | 70 | 1013.0 |
| 20260509191907 | 18 | 293 | 8.0 | 33.8 | 0.00 | 0.46 | 0.46 | 72 | 1012.9 |
| 20260509191402 | 19 | 198 | 8.0 | 19.3 | 0.00 | 0.46 | 0.46 | 70 | 1013.1 |
| 20260509190859 | 18 | 135 | 8.0 | 22.5 | 0.00 | 0.46 | 0.46 | 72 | 1013.2 |
| 20260509190356 | 18 | 223 | 12.9 | 19.3 | 0.00 | 0.46 | 0.46 | 73 | 1013.1 |
| 20260509185854 | 18 | 186 | 14.5 | 22.5 | 0.00 | 0.46 | 0.46 | 73 | 1013.3 |
| 20260509185350 | 17 | 202 | 20.9 | 29.0 | 0.00 | 0.46 | 0.46 | 74 | 1013.2 |
| 20260509184847 | 17 | 202 | 9.7 | 19.3 | 0.00 | 0.46 | 0.46 | 73 | 1013.3 |
| 20260509184344 | 17 | 163 | 6.4 | 11.3 | 0.00 | 0.46 | 0.46 | 74 | 1013.5 |
| 20260509183841 | 18 | 203 | 6.4 | 19.3 | 0.00 | 0.46 | 0.46 | 74 | 1013.3 |
| 20260509183336 | 18 | 217 | 8.0 | 11.3 | 0.00 | 0.46 | 0.46 | 74 | 1013.3 |
| 20260509182832 | 17 | 147 | 4.8 | 11.3 | 0.00 | 0.46 | 0.46 | 76 | 1013.4 |
| 20260509182329 | 17 | 201 | 6.4 | 11.3 | 0.00 | 0.46 | 0.46 | 76 | 1013.5 |
| 20260509181827 | 16 | 104 | 4.8 | 19.3 | 0.00 | 0.46 | 0.46 | 78 | 1013.6 |
| 20260509181324 | 17 | 269 | 12.9 | 19.3 | 0.00 | 0.46 | 0.46 | 77 | 1013.7 |
| 20260509180821 | 16 | 211 | 6.4 | 11.3 | 0.00 | 0.46 | 0.46 | 79 | 1013.5 |
| 20260509180317 | 16 | 156 | 0.0 | 8.0 | 0.00 | 0.46 | 0.46 | 79 | 1013.6 |
| 20260509175814 | 16 | 172 | 6.4 | 8.0 | 0.00 | 0.46 | 0.46 | 79 | 1013.6 |
| 20260509175310 | 15 | 217 | 6.4 | 11.3 | 0.00 | 0.46 | 0.46 | 80 | 1013.6 |
| 20260509174806 | 15 | 187 | 6.4 | 11.3 | 0.00 | 0.46 | 0.46 | 81 | 1013.6 |
| 20260509174302 | 15 | 220 | 3.2 | 14.5 | 0.00 | 0.46 | 0.46 | 81 | 1013.6 |
| 20260509173758 | 15 | 176 | 4.8 | 14.5 | 0.00 | 0.46 | 0.46 | 81 | 1013.4 |
| 20260509173253 | 16 | 177 | 3.2 | 19.3 | 0.00 | 0.46 | 0.46 | 81 | 1013.5 |
| 20260509172749 | 16 | 201 | 9.7 | 14.5 | 0.00 | 0.46 | 0.46 | 80 | 1013.7 |
| 20260509172247 | 15 | 194 | 4.8 | 22.5 | 0.00 | 0.46 | 0.46 | 81 | 1013.6 |
| 20260509171742 | 15 | 162 | 4.8 | 11.3 | 0.00 | 0.46 | 0.46 | 82 | 1013.5 |
| 20260509171238 | 16 | 226 | 1.6 | 19.3 | 0.00 | 0.46 | 0.46 | 82 | 1013.5 |
| 20260509170735 | 16 | 131 | 9.7 | 11.3 | 0.00 | 0.46 | 0.46 | 81 | 1013.4 |
| 20260509170231 | 16 | 168 | 9.7 | 11.3 | 0.00 | 0.46 | 0.46 | 81 | 1013.4 |
| 20260509165730 | 16 | 140 | 4.8 | 11.3 | 0.00 | 0.46 | 0.46 | 81 | 1013.5 |
| 20260509165225 | 15 | 206 | 11.3 | 14.5 | 0.00 | 0.46 | 0.46 | 83 | 1013.5 |
| 20260509164721 | 15 | 178 | 3.2 | 22.5 | 0.00 | 0.46 | 0.46 | 84 | 1013.3 |
| 20260509164217 | 16 | 149 | 4.8 | 8.0 | 0.00 | 0.46 | 0.46 | 83 | 1013.1 |
| 20260509163715 | 16 | 190 | 3.2 | 11.3 | 0.00 | 0.46 | 0.46 | 87 | 1013.3 |
| 20260509163211 | 15 | 186 | 3.2 | 19.3 | 0.00 | 0.46 | 0.46 | 86 | 1013.1 |
| 20260509162709 | 14 | 154 | 4.8 | 11.3 | 0.00 | 0.46 | 0.46 | 90 | 1013.3 |
| 20260509162204 | 14 | 161 | 3.2 | 3.2 | 0.00 | 0.46 | 0.46 | 91 | 1013.4 |
| 20260509161700 | 13 | 167 | 0.0 | 11.3 | 0.00 | 0.46 | 0.46 | 92 | 1013.4 |
| 20260509161156 | 13 | 193 | 3.2 | 8.0 | 0.00 | 0.46 | 0.46 | 91 | 1013.2 |
| 20260509160651 | 13 | 210 | 4.8 | 11.3 | 0.00 | 0.46 | 0.46 | 92 | 1013.5 |
| 20260509160147 | 13 | 160 | 0.0 | 3.2 | 0.00 | 0.46 | 0.46 | 93 | 1013.5 |
| 20260509155644 | 13 | 166 | 1.6 | 3.2 | 0.00 | 0.46 | 0.46 | 93 | 1013.4 |
| 20260509155140 | 12 | 197 | 1.6 | 8.0 | 0.00 | 0.46 | 0.46 | 93 | 1013.4 |
| 20260509154635 | 12 | 155 | 4.8 | 8.0 | 0.00 | 0.46 | 0.46 | 94 | 1013.5 |
| 20260509154133 | 12 | 166 | 3.2 | 8.0 | 0.00 | 0.46 | 0.46 | 94 | 1013.4 |
| 20260509153630 | 12 | 165 | 3.2 | 8.0 | 0.00 | 0.46 | 0.46 | 94 | 1013.0 |
| 20260509153127 | 12 | 175 | 1.6 | 3.2 | 0.00 | 0.46 | 0.46 | 95 | 1012.9 |
| 20260509152622 | 12 | 198 | 6.4 | 11.3 | 0.00 | 0.46 | 0.46 | 95 | 1012.9 |
| 20260509152120 | 12 | 166 | 4.8 | 8.0 | 0.00 | 0.46 | 0.46 | 94 | 1012.8 |
| 20260509151616 | 12 | 162 | 3.2 | 11.3 | 0.00 | 0.46 | 0.46 | 95 | 1012.8 |
| 20260509151114 | 12 | 183 | 3.2 | 11.3 | 0.18 | 0.46 | 0.46 | 95 | 1012.9 |
| 20260509150611 | 12 | 136 | 4.8 | 11.3 | 0.18 | 0.46 | 0.46 | 94 | 1013.0 |
| 20260509150110 | 12 | 89 | 4.8 | 11.3 | 0.00 | 0.43 | 0.43 | 94 | 1013.2 |
| 20260509145605 | 12 | 176 | 4.8 | 11.3 | 0.00 | 0.43 | 0.43 | 94 | 1013.4 |
| 20260509145100 | 12 | 204 | 1.6 | 8.0 | 0.18 | 0.43 | 0.43 | 94 | 1013.3 |
| 20260509144558 | 12 | 155 | 3.2 | 11.3 | 0.18 | 0.43 | 0.43 | 94 | 1013.2 |
| 20260509144054 | 11 | 168 | 1.6 | 14.5 | 0.00 | 0.41 | 0.41 | 95 | 1013.3 |
| 20260509143551 | 11 | 173 | 9.7 | 19.3 | 0.13 | 0.41 | 0.41 | 94 | 1013.3 |
| 20260509143049 | 11 | 161 | 4.8 | 8.0 | 0.13 | 0.41 | 0.41 | 95 | 1013.4 |
| 20260509142544 | 11 | 297 | 6.4 | 14.5 | 0.00 | 0.38 | 0.38 | 95 | 1013.5 |
| 20260509142041 | 11 | 178 | 4.8 | 8.0 | 0.00 | 0.38 | 0.38 | 95 | 1013.5 |
| 20260509141537 | 11 | 171 | 0.0 | 3.2 | 0.00 | 0.38 | 0.38 | 94 | 1013.5 |
| 20260509141034 | 11 | 167 | 1.6 | 14.5 | 0.00 | 0.38 | 0.38 | 94 | 1013.6 |
| 20260509140531 | 11 | 179 | 3.2 | 11.3 | 0.00 | 0.38 | 0.38 | 94 | 1013.5 |
| 20260509140029 | 11 | 167 | 0.0 | 8.0 | 0.18 | 0.38 | 0.38 | 94 | 1013.7 |
| 20260509135525 | 11 | 117 | 4.8 | 11.3 | 0.00 | 0.36 | 0.36 | 94 | 1013.5 |
| 20260509135023 | 11 | 178 | 0.0 | 3.2 | 0.13 | 0.36 | 0.36 | 94 | 1013.5 |
| 20260509134520 | 11 | 178 | 3.2 | 8.0 | 0.13 | 0.36 | 0.36 | 94 | 1013.5 |
| 20260509134018 | 11 | 140 | 4.8 | 8.0 | 0.00 | 0.33 | 0.33 | 94 | 1013.6 |
| 20260509133514 | 11 | 184 | 4.8 | 11.3 | 0.00 | 0.33 | 0.33 | 94 | 1013.6 |
| 20260509133012 | 11 | 165 | 3.2 | 8.0 | 0.18 | 0.33 | 0.33 | 94 | 1013.5 |
| 20260509132510 | 11 | 178 | 0.0 | 3.2 | 0.18 | 0.33 | 0.33 | 94 | 1013.6 |
| 20260509132008 | 11 | 190 | 6.4 | 11.3 | 0.00 | 0.30 | 0.30 | 94 | 1013.6 |
| 20260509131504 | 11 | 167 | 0.0 | 8.0 | 0.13 | 0.30 | 0.30 | 94 | 1013.6 |
| 20260509131000 | 11 | 161 | 3.2 | 8.0 | 0.13 | 0.30 | 0.30 | 94 | 1013.7 |
| 20260509130456 | 11 | 179 | 4.8 | 8.0 | 0.00 | 0.28 | 0.28 | 94 | 1013.6 |
| 20260509125953 | 11 | 164 | 0.0 | 8.0 | 0.00 | 0.28 | 0.28 | 94 | 1013.8 |
| 20260509125450 | 11 | 184 | 3.2 | 8.0 | 0.18 | 0.28 | 0.28 | 94 | 1013.7 |
| 20260509124946 | 11 | 206 | 4.8 | 8.0 | 0.18 | 0.28 | 0.28 | 94 | 1013.6 |
| 20260509124443 | 11 | 175 | 3.2 | 8.0 | 0.13 | 0.25 | 0.25 | 94 | 1014.0 |
| 20260509123940 | 11 | 194 | 4.8 | 8.0 | 0.13 | 0.25 | 0.25 | 94 | 1013.9 |
| 20260509123438 | 11 | 157 | 0.0 | 3.2 | 0.00 | 0.23 | 0.23 | 94 | 1013.9 |
| 20260509122933 | 11 | 165 | 4.8 | 11.3 | 0.00 | 0.23 | 0.23 | 94 | 1013.8 |
| 20260509122431 | 11 | 192 | 4.8 | 8.0 | 0.00 | 0.23 | 0.23 | 94 | 1013.9 |
| 20260509121927 | 11 | 189 | 3.2 | 8.0 | 0.18 | 0.23 | 0.23 | 94 | 1013.7 |
| 20260509121424 | 11 | 163 | 1.6 | 11.3 | 0.18 | 0.23 | 0.23 | 94 | 1013.9 |
| 20260509120922 | 11 | 169 | 4.8 | 8.0 | 0.00 | 0.20 | 0.20 | 94 | 1014.1 |
| 20260509120420 | 11 | 168 | 3.2 | 8.0 | 0.00 | 0.20 | 0.20 | 94 | 1014.0 |
| 20260509115918 | 11 | 209 | 1.6 | 3.2 | 0.00 | 0.20 | 0.20 | 94 | 1013.7 |
| 20260509115415 | 11 | 138 | 6.4 | 11.3 | 0.00 | 0.20 | 0.20 | 94 | 1013.9 |
| 20260509114912 | 11 | 116 | 3.2 | 8.0 | 0.13 | 0.20 | 0.20 | 94 | 1013.8 |
| 20260509114411 | 11 | 172 | 8.0 | 14.5 | 0.13 | 0.20 | 0.20 | 93 | 1013.9 |
| 20260509113910 | 11 | 215 | 3.2 | 8.0 | 0.00 | 0.18 | 0.18 | 93 | 1013.7 |
| 20260509113407 | 11 | 166 | 0.0 | 11.3 | 0.18 | 0.18 | 0.18 | 93 | 1013.8 |
| 20260509112903 | 11 | 192 | 3.2 | 8.0 | 0.18 | 0.18 | 0.18 | 93 | 1013.7 |
| 20260509112400 | 11 | 206 | 3.2 | 3.2 | 0.18 | 0.15 | 0.15 | 93 | 1013.7 |
| 20260509111858 | 11 | 179 | 4.8 | 8.0 | 0.30 | 0.15 | 0.15 | 93 | 1013.7 |
| 20260509111354 | 11 | 136 | 8.0 | 11.3 | 0.13 | 0.13 | 0.13 | 92 | 1013.8 |
| 20260509110852 | 11 | 159 | 1.6 | 11.3 | 0.18 | 0.10 | 0.10 | 92 | 1013.7 |
| 20260509110348 | 11 | 210 | 6.4 | 8.0 | 0.00 | 0.08 | 0.08 | 91 | 1013.6 |
| 20260509105846 | 11 | 296 | 12.9 | 19.3 | 0.13 | 0.08 | 0.08 | 91 | 1013.5 |
| 20260509105344 | 11 | 161 | 1.6 | 14.5 | 0.13 | 0.08 | 0.08 | 91 | 1013.5 |
| 20260509104841 | 11 | 163 | 4.8 | 11.3 | 0.00 | 0.05 | 0.05 | 91 | 1013.5 |
| 20260509104337 | 11 | 178 | 0.0 | 14.5 | 0.00 | 0.05 | 0.05 | 90 | 1013.5 |
| 20260509103835 | 11 | 109 | 8.0 | 19.3 | 0.00 | 0.05 | 0.05 | 90 | 1013.5 |
| 20260509103332 | 11 | 167 | 0.0 | 19.3 | 0.00 | 0.05 | 0.05 | 90 | 1013.5 |
| 20260509102831 | 11 | 194 | 4.8 | 14.5 | 0.00 | 0.05 | 0.05 | 90 | 1013.6 |
| 20260509102328 | 11 | 168 | 4.8 | 11.3 | 0.00 | 0.05 | 0.05 | 91 | 1013.6 |
| 20260509101823 | 11 | 211 | 4.8 | 14.5 | 0.00 | 0.05 | 0.05 | 91 | 1013.5 |
| 20260509101320 | 11 | 170 | 3.2 | 11.3 | 0.00 | 0.05 | 0.05 | 90 | 1013.4 |
| 20260509100818 | 11 | 181 | 4.8 | 11.3 | 0.00 | 0.05 | 0.05 | 90 | 1013.5 |
| 20260509100315 | 11 | 149 | 3.2 | 8.0 | 0.18 | 0.05 | 0.05 | 90 | 1013.4 |
| 20260509095811 | 11 | 185 | 6.4 | 14.5 | 0.18 | 0.05 | 0.05 | 90 | 1013.8 |
| 20260509095309 | 11 | 165 | 1.6 | 3.2 | 0.00 | 0.03 | 0.03 | 90 | 1013.6 |
| 20260509094806 | 11 | 166 | 6.4 | 11.3 | 0.00 | 0.03 | 0.03 | 89 | 1013.6 |
| 20260509094302 | 11 | 155 | 4.8 | 19.3 | 0.00 | 0.03 | 0.03 | 90 | 1013.6 |
| 20260509093800 | 11 | 147 | 0.0 | 11.3 | 0.00 | 0.03 | 0.03 | 89 | 1013.8 |
| 20260509093257 | 11 | 164 | 4.8 | 8.0 | 0.00 | 0.03 | 0.03 | 89 | 1013.8 |
| 20260509092755 | 11 | 188 | 4.8 | 14.5 | 0.00 | 0.03 | 0.03 | 89 | 1013.7 |
| 20260509092253 | 11 | 214 | 8.0 | 11.3 | 0.00 | 0.03 | 0.03 | 89 | 1014.0 |
| 20260509091751 | 11 | 159 | 1.6 | 22.5 | 0.00 | 0.03 | 0.03 | 90 | 1014.0 |
| 20260509091247 | 10 | 173 | 1.6 | 11.3 | 0.00 | 0.03 | 0.03 | 92 | 1013.8 |
| 20260509090745 | 10 | 150 | 0.0 | 11.3 | 0.00 | 0.03 | 0.03 | 94 | 1014.0 |
| 20260509090241 | 10 | 170 | 1.6 | 11.3 | 0.13 | 0.03 | 0.03 | 95 | 1013.8 |
| 20260509085740 | 10 | 164 | 0.0 | 3.2 | 0.00 | 0.00 | 0.00 | 96 | 1014.1 |
| 20260509085237 | 10 | 152 | 0.0 | 3.2 | 0.00 | 0.00 | 0.00 | 97 | 1014.0 |
| 20260509084733 | 10 | 164 | 0.0 | 0.0 | 0.00 | 0.00 | 0.00 | 97 | 1014.0 |
| 20260509084229 | 10 | 164 | 0.0 | 0.0 | 0.00 | 0.00 | 0.00 | 97 | 1014.0 |
| 20260509083728 | 10 | 167 | 0.0 | 0.0 | 0.00 | 0.00 | 0.00 | 97 | 1014.2 |
| 20260509083224 | 10 | 133 | 1.6 | 3.2 | 0.00 | 0.00 | 0.00 | 97 | 1014.0 |
| 20260509082721 | 10 | 163 | 0.0 | 0.0 | 0.00 | 0.00 | 0.00 | 97 | 1014.1 |
| 20260509082218 | 10 | 164 | 0.0 | 3.2 | 0.00 | 0.00 | 0.00 | 97 | 1014.1 |
| 20260509081714 | 10 | 162 | 0.0 | 0.0 | 0.00 | 0.00 | 0.00 | 97 | 1013.7 |
| 20260509081212 | 10 | 155 | 0.0 | 0.0 | 0.00 | 0.00 | 0.00 | 97 | 1013.8 |
| 20260509080710 | 10 | 133 | 1.6 | 8.0 | 0.00 | 0.00 | 0.00 | 97 | 1013.5 |
| 20260509080207 | 10 | 174 | 0.0 | 0.0 | 0.00 | 0.00 | 0.00 | 97 | 1013.7 |
| 20260509075705 | 10 | 149 | 1.6 | 8.0 | 0.00 | 0.00 | 0.00 | 97 | 1013.6 |
| 20260509075203 | 10 | 164 | 0.0 | 3.2 | 0.00 | 0.00 | 0.00 | 97 | 1013.9 |
| 20260509074659 | 10 | 152 | 0.0 | 3.2 | 0.00 | 0.00 | 0.00 | 97 | 1013.4 |
| 20260509074156 | 10 | 175 | 1.6 | 3.2 | 0.00 | 0.00 | 0.00 | 97 | 1013.7 |
| 20260509073653 | 10 | 152 | 0.0 | 3.2 | 0.00 | 0.00 | 0.00 | 97 | 1013.3 |
| 20260509073149 | 10 | 159 | 0.0 | 3.2 | 0.00 | 0.00 | 0.00 | 97 | 1013.3 |
| 20260509072646 | 10 | 159 | 0.0 | 0.0 | 0.00 | 0.00 | 0.00 | 97 | 1013.2 |
| 20260509072143 | 10 | 162 | 0.0 | 0.0 | 0.00 | 0.00 | 0.00 | 97 | 1013.1 |
| 20260509071639 | 10 | 161 | 0.0 | 3.2 | 0.00 | 0.00 | 0.00 | 97 | 1013.1 |
| 20260509071137 | 10 | 161 | 0.0 | 0.0 | 0.00 | 0.00 | 0.00 | 97 | 1013.1 |
| 20260509070634 | 10 | 161 | 0.0 | 0.0 | 0.00 | 0.00 | 0.00 | 97 | 1013.2 |
| 20260509070130 | 10 | 161 | 0.0 | 0.0 | 0.00 | 0.00 | 0.00 | 97 | 1013.2 |
| 20260509065626 | 10 | 162 | 0.0 | 0.0 | 0.00 | 0.00 | 0.00 | 97 | 1013.3 |
| 20260509065122 | 10 | 162 | 0.0 | 0.0 | 0.00 | 0.00 | 0.00 | 97 | 1013.4 |
| 20260509064620 | 10 | 159 | 0.0 | 3.2 | 0.00 | 0.00 | 0.00 | 97 | 1013.2 |
| 20260509064118 | 10 | 152 | 4.8 | 8.0 | 0.00 | 0.00 | 0.00 | 97 | 1013.4 |
| 20260509063614 | 10 | 155 | 1.6 | 3.2 | 0.00 | 0.00 | 0.00 | 97 | 1013.6 |
| 20260509063110 | 10 | 162 | 0.0 | 0.0 | 0.00 | 0.00 | 0.00 | 97 | 1013.7 |
| 20260509062608 | 10 | 157 | 0.0 | 3.2 | 0.00 | 0.00 | 0.00 | 97 | 1013.8 |
| 20260509062105 | 10 | 150 | 0.0 | 3.2 | 0.00 | 0.00 | 0.00 | 97 | 1014.0 |
| 20260509061601 | 10 | 149 | 1.6 | 3.2 | 0.00 | 0.00 | 0.00 | 97 | 1014.0 |
| 20260509061059 | 10 | 152 | 1.6 | 3.2 | 0.00 | 0.00 | 0.00 | 97 | 1014.1 |
| 20260509060557 | 10 | 160 | 1.6 | 3.2 | 0.00 | 0.00 | 0.00 | 97 | 1014.0 |
| 20260509060052 | 10 | 152 | 0.0 | 3.2 | 0.00 | 0.00 | 0.00 | 96 | 1014.4 |
| 20260509055548 | 10 | 154 | 0.0 | 3.2 | 0.00 | 0.00 | 0.00 | 96 | 1014.4 |
| 20260509055044 | 10 | 157 | 1.6 | 3.2 | 0.00 | 0.00 | 0.00 | 96 | 1014.4 |
| 20260509054541 | 10 | 145 | 1.6 | 3.2 | 0.00 | 0.00 | 0.00 | 96 | 1014.8 |
| 20260509054038 | 10 | 162 | 0.0 | 3.2 | 0.00 | 0.00 | 0.00 | 96 | 1014.4 |
| 20260509053537 | 10 | 164 | 0.0 | 3.2 | 0.00 | 0.00 | 0.00 | 96 | 1014.5 |
| 20260509053033 | 10 | 154 | 1.6 | 3.2 | 0.00 | 0.00 | 0.00 | 96 | 1014.6 |
| 20260509052531 | 10 | 159 | 0.0 | 3.2 | 0.00 | 0.00 | 0.00 | 96 | 1014.6 |
| 20260509052029 | 10 | 154 | 1.6 | 3.2 | 0.00 | 0.00 | 0.00 | 96 | 1014.8 |
| 20260509051527 | 10 | 162 | 0.0 | 0.0 | 0.00 | 0.00 | 0.00 | 96 | 1014.6 |
| 20260509051024 | 10 | 159 | 0.0 | 0.0 | 0.00 | 0.00 | 0.00 | 96 | 1014.6 |
| 20260509050520 | 10 | 163 | 0.0 | 0.0 | 0.00 | 0.00 | 0.00 | 96 | 1014.9 |
| 20260509050017 | 10 | 162 | 0.0 | 3.2 | 0.00 | 0.00 | 0.00 | 96 | 1014.5 |
| 20260509045514 | 10 | 171 | 1.6 | 3.2 | 0.00 | 0.00 | 0.00 | 96 | 1014.6 |
| 20260509045011 | 10 | 148 | 3.2 | 3.2 | 0.00 | 0.00 | 0.00 | 96 | 1014.6 |
| 20260509044509 | 10 | 163 | 0.0 | 3.2 | 0.00 | 0.00 | 0.00 | 96 | 1014.5 |
| 20260509044006 | 10 | 156 | 0.0 | 3.2 | 0.00 | 0.00 | 0.00 | 96 | 1014.6 |
| 20260509043502 | 10 | 155 | 1.6 | 3.2 | 0.00 | 0.00 | 0.00 | 96 | 1014.6 |
| 20260509042957 | 10 | 163 | 0.0 | 0.0 | 0.00 | 0.00 | 0.00 | 95 | 1014.7 |
| 20260509042454 | 10 | 148 | 3.2 | 3.2 | 0.00 | 0.00 | 0.00 | 95 | 1014.8 |
| 20260509041950 | 10 | 152 | 0.0 | 3.2 | 0.00 | 0.00 | 0.00 | 95 | 1014.9 |
| 20260509041447 | 10 | 151 | 0.0 | 3.2 | 0.00 | 0.00 | 0.00 | 95 | 1015.0 |
| 20260509040945 | 10 | 161 | 0.0 | 0.0 | 0.00 | 0.00 | 0.00 | 95 | 1015.1 |
| 20260509040443 | 10 | 164 | 0.0 | 3.2 | 0.18 | 0.00 | 0.00 | 95 | 1014.9 |
| 20260509035939 | 10 | 162 | 0.0 | 3.2 | 0.18 | 0.05 | 0.05 | 94 | 1015.2 |
| 20260509035436 | 10 | 160 | 0.0 | 0.0 | 0.00 | 0.03 | 0.03 | 94 | 1015.1 |
| 20260509034933 | 10 | 162 | 0.0 | 3.2 | 0.00 | 0.03 | 0.03 | 94 | 1015.4 |
| 20260509034431 | 10 | 159 | 1.6 | 3.2 | 0.00 | 0.03 | 0.03 | 94 | 1015.6 |
| 20260509033928 | 10 | 163 | 0.0 | 0.0 | 0.00 | 0.03 | 0.03 | 94 | 1015.7 |
| 20260509033425 | 10 | 150 | 0.0 | 3.2 | 0.00 | 0.03 | 0.03 | 94 | 1015.6 |
| 20260509032921 | 10 | 154 | 0.0 | 0.0 | 0.00 | 0.03 | 0.03 | 94 | 1015.8 |
| 20260509032419 | 10 | 170 | 1.6 | 3.2 | 0.00 | 0.03 | 0.03 | 94 | 1015.9 |
| 20260509031917 | 10 | 163 | 0.0 | 0.0 | 0.00 | 0.03 | 0.03 | 94 | 1016.0 |
| 20260509031414 | 10 | 153 | 0.0 | 3.2 | 0.00 | 0.03 | 0.03 | 94 | 1015.8 |
| 20260509030911 | 10 | 150 | 1.6 | 3.2 | 0.00 | 0.03 | 0.03 | 94 | 1015.9 |
| 20260509030409 | 10 | 152 | 1.6 | 3.2 | 0.00 | 0.03 | 0.03 | 93 | 1016.2 |
| 20260509025906 | 10 | 163 | 0.0 | 3.2 | 0.00 | 0.03 | 0.03 | 93 | 1016.3 |
| 20260509025401 | 11 | 154 | 0.0 | 0.0 | 0.00 | 0.03 | 0.03 | 92 | 1016.2 |
| 20260509024857 | 11 | 171 | 0.0 | 3.2 | 0.00 | 0.03 | 0.03 | 92 | 1016.0 |
| 20260509024353 | 11 | 168 | 0.0 | 0.0 | 0.00 | 0.03 | 0.03 | 92 | 1016.2 |
| 20260509023850 | 11 | 150 | 0.0 | 8.0 | 0.00 | 0.03 | 0.03 | 92 | 1016.3 |
| 20260509023348 | 10 | 165 | 0.0 | 3.2 | 0.00 | 0.03 | 0.03 | 92 | 1016.2 |
| 20260509022844 | 10 | 142 | 4.8 | 8.0 | 0.00 | 0.03 | 0.03 | 92 | 1016.4 |
| 20260509022341 | 11 | 154 | 1.6 | 3.2 | 0.13 | 0.03 | 0.03 | 91 | 1016.4 |
| 20260509021838 | 11 | 150 | 0.0 | 3.2 | 0.13 | 0.03 | 0.03 | 91 | 1016.2 |
| 20260509021335 | 11 | 150 | 3.2 | 3.2 | 0.00 | 0.00 | 0.00 | 91 | 1016.2 |
| 20260509020833 | 11 | 142 | 4.8 | 8.0 | 0.00 | 0.00 | 0.00 | 90 | 1015.8 |
| 20260509020331 | 11 | 183 | 0.0 | 0.0 | 0.00 | 0.00 | 0.00 | 90 | 1015.9 |
| 20260509015828 | 11 | 155 | 1.6 | 3.2 | 0.00 | 0.00 | 0.00 | 89 | 1015.9 |
| 20260509015326 | 11 | 162 | 1.6 | 3.2 | 0.00 | 0.00 | 0.00 | 89 | 1015.7 |
| 20260509014823 | 11 | 154 | 0.0 | 3.2 | 0.00 | 0.00 | 0.00 | 88 | 1015.8 |
| 20260509014320 | 11 | 161 | 3.2 | 8.0 | 0.00 | 0.00 | 0.00 | 88 | 1015.7 |
| 20260509013816 | 11 | 153 | 1.6 | 3.2 | 0.00 | 0.00 | 0.00 | 87 | 1015.5 |
| 20260509013313 | 11 | 154 | 0.0 | 0.0 | 0.00 | 0.00 | 0.00 | 86 | 1015.4 |
| 20260509012809 | 11 | 149 | 3.2 | 3.2 | 0.00 | 0.00 | 0.00 | 86 | 1015.2 |
| 20260509012307 | 11 | 145 | 3.2 | 8.0 | 0.00 | 0.00 | 0.00 | 85 | 1015.2 |
| 20260509011803 | 11 | 150 | 0.0 | 3.2 | 0.00 | 0.00 | 0.00 | 85 | 1015.3 |
| 20260509011300 | 11 | 162 | 1.6 | 3.2 | 0.00 | 0.00 | 0.00 | 85 | 1015.3 |
| 20260509010758 | 11 | 159 | 0.0 | 0.0 | 0.00 | 0.00 | 0.00 | 84 | 1015.0 |
| 20260509010254 | 11 | 149 | 1.6 | 8.0 | 0.00 | 0.00 | 0.00 | 85 | 1014.9 |
| 20260509005752 | 11 | 155 | 1.6 | 3.2 | 0.00 | 0.00 | 0.00 | 84 | 1014.7 |
| 20260509005250 | 11 | 155 | 0.0 | 3.2 | 0.00 | 0.00 | 0.00 | 84 | 1014.7 |
| 20260509004749 | 11 | 163 | 0.0 | 3.2 | 0.00 | 0.00 | 0.00 | 83 | 1014.5 |
| 20260509004246 | 11 | 161 | 3.2 | 8.0 | 0.00 | 0.00 | 0.00 | 84 | 1014.5 |
| 20260509003745 | 11 | 162 | 0.0 | 3.2 | 0.00 | 0.00 | 0.00 | 83 | 1014.6 |
| 20260509003242 | 11 | 161 | 0.0 | 0.0 | 0.00 | 0.00 | 0.00 | 83 | 1014.5 |
| 20260509002739 | 11 | 164 | 0.0 | 3.2 | 0.00 | 0.00 | 0.00 | 83 | 1014.6 |
| 20260509002236 | 11 | 164 | 3.2 | 3.2 | 0.00 | 0.00 | 0.00 | 83 | 1014.8 |
| 20260509001734 | 12 | 160 | 0.0 | 3.2 | 0.00 | 0.00 | 0.00 | 83 | 1014.8 |
| 20260509001230 | 12 | 161 | 0.0 | 3.2 | 0.00 | 0.00 | 0.00 | 81 | 1014.8 |
| 20260509000728 | 12 | 155 | 1.6 | 3.2 | 0.00 | 0.00 | 0.00 | 83 | 1014.8 |
| 20260509000226 | 12 | 145 | 3.2 | 8.0 | 0.00 | 0.00 | 0.00 | 83 | 1014.7 |
| 20260508235722 | 12 | 145 | 1.6 | 3.2 | 0.00 | 0.00 | 0.00 | 83 | 1014.6 |
| 20260508235218 | 12 | 155 | 1.6 | 3.2 | 0.00 | 0.00 | 0.00 | 82 | 1014.7 |
| 20260508234716 | 12 | 155 | 3.2 | 3.2 | 0.00 | 0.00 | 0.00 | 82 | 1014.8 |
| 20260508234212 | 12 | 164 | 0.0 | 3.2 | 0.00 | 0.00 | 0.00 | 79 | 1014.9 |
| 20260508233711 | 12 | 157 | 3.2 | 3.2 | 0.00 | 0.00 | 0.00 | 81 | 1014.8 |
| 20260508233209 | 12 | 150 | 0.0 | 3.2 | 0.00 | 0.00 | 0.00 | 82 | 1014.7 |
| 20260508232706 | 12 | 153 | 1.6 | 8.0 | 0.00 | 0.00 | 0.00 | 82 | 1014.7 |
| 20260508232202 | 12 | 153 | 4.8 | 8.0 | 0.00 | 0.00 | 0.00 | 80 | 1014.9 |
| 20260508231701 | 12 | 144 | 3.2 | 3.2 | 0.00 | 0.00 | 0.00 | 80 | 1014.9 |
| 20260508231157 | 12 | 152 | 1.6 | 3.2 | 0.00 | 0.00 | 0.00 | 82 | 1014.9 |
| 20260508230654 | 12 | 148 | 1.6 | 8.0 | 0.00 | 0.00 | 0.00 | 81 | 1014.9 |
| 20260508230150 | 13 | 155 | 3.2 | 3.2 | 0.00 | 0.00 | 0.00 | 78 | 1015.0 |
| 20260508225648 | 13 | 157 | 4.8 | 8.0 | 0.00 | 0.00 | 0.00 | 77 | 1015.2 |
| 20260508225144 | 13 | 140 | 3.2 | 8.0 | 0.00 | 0.00 | 0.00 | 80 | 1015.1 |
| 20260508224642 | 13 | 142 | 3.2 | 8.0 | 0.00 | 0.00 | 0.00 | 78 | 1015.1 |
| 20260508224139 | 13 | 148 | 1.6 | 3.2 | 0.00 | 0.00 | 0.00 | 76 | 1015.2 |
| 20260508223637 | 13 | 139 | 6.4 | 8.0 | 0.00 | 0.00 | 0.00 | 77 | 1015.0 |
| 20260508223134 | 13 | 155 | 3.2 | 8.0 | 0.00 | 0.00 | 0.00 | 75 | 1015.1 |
| 20260508222631 | 13 | 160 | 3.2 | 3.2 | 0.00 | 0.00 | 0.00 | 76 | 1014.9 |
| 20260508222128 | 13 | 150 | 3.2 | 3.2 | 0.00 | 0.00 | 0.00 | 77 | 1014.9 |
| 20260508221624 | 13 | 146 | 1.6 | 3.2 | 0.00 | 0.00 | 0.00 | 76 | 1014.7 |
| 20260508221120 | 13 | 145 | 4.8 | 8.0 | 0.00 | 0.00 | 0.00 | 74 | 1014.9 |
| 20260508220617 | 13 | 156 | 3.2 | 8.0 | 0.00 | 0.00 | 0.00 | 74 | 1014.7 |
| 20260508220114 | 15 | 166 | 3.2 | 3.2 | 0.00 | 0.00 | 0.00 | 75 | 1014.8 |
| 20260508215611 | 15 | 162 | 0.0 | 0.0 | 0.00 | 0.00 | 0.00 | 70 | 1014.8 |
| 20260508215107 | 15 | 152 | 0.0 | 3.2 | 0.00 | 0.00 | 0.00 | 69 | 1014.9 |
| 20260508214604 | 15 | 151 | 3.2 | 3.2 | 0.00 | 0.00 | 0.00 | 67 | 1015.0 |
| 20260508214101 | 15 | 162 | 0.0 | 0.0 | 0.00 | 0.00 | 0.00 | 61 | 1014.9 |
| 20260508213558 | 15 | 156 | 0.0 | 0.0 | 0.00 | 0.00 | 0.00 | 59 | 1014.9 |